• In Uzbekistan
  • List of Countries
  • For 7 days
  • Water Temperature
  • Satellite Maps
  • Weather Map
  • Weather Widgets
  • user-avatar
    Login

    Hourly Weather Ali Bayramli

    Today, 20 February, Monday

    Time Temperature Precipitation Wind Pressure Humidity
    00:00 +1°C° 0 mm 0 mps 770 mmHg 69%
    01:00 +1°C° 0 mm 0 mps 770 mmHg 69%
    02:00 +1°C° 0 mm 0 mps 770 mmHg 69%
    03:00 +1°C° 0 mm 0 mps 770 mmHg 67%
    04:00 +1°C° 0 mm 0 mps 770 mmHg 67%
    05:00 +1°C° 0 mm 0 mps 769 mmHg 67%
    06:00 +2°C° 0 mm 1 mps 769 mmHg 67%
    07:00 +3°C° 0 mm 1 mps 769 mmHg 62%
    08:00 +5°C° 0 mm 1 mps 769 mmHg 58%
    09:00 +7°C° 0 mm 1 mps 769 mmHg 54%
    10:00 +7°C° 0 mm 2 mps 769 mmHg 51%
    11:00 +8°C° 0 mm 2 mps 768 mmHg 48%
    12:00 +9°C° 0 mm 2 mps 768 mmHg 46%
    13:00 +9°C° 0 mm 2 mps 767 mmHg 45%
    14:00 +10°C° 0 mm 2 mps 766 mmHg 45%
    15:00 +9°C° 0 mm 3 mps 766 mmHg 44%
    16:00 +8°C° 0 mm 3 mps 766 mmHg 51%
    17:00 +6°C° 0 mm 2 mps 766 mmHg 57%
    18:00 +5°C° 0 mm 2 mps 766 mmHg 64%
    19:00 +4°C° 0 mm 2 mps 765 mmHg 67%
    20:00 +4°C° 0 mm 2 mps 765 mmHg 70%
    21:00 +4°C° 0 mm 2 mps 765 mmHg 73%
    22:00 +3°C° 0 mm 2 mps 764 mmHg 76%
    23:00 +4°C° 0 mm 1 mps 764 mmHg 79%

    Tomorrow, 21 February, Tuesday

    Time Temperature Precipitation Wind Pressure Humidity
    00:00 +3°C° 0 mm 1 mps 764 mmHg 82%
    01:00 +3°C° 0 mm 1 mps 763 mmHg 83%
    02:00 +3°C° 0 mm 1 mps 763 mmHg 84%
    03:00 +3°C° 0 mm 1 mps 763 mmHg 84%
    04:00 +3°C° 0 mm 1 mps 762 mmHg 84%
    05:00 +2°C° 0 mm 1 mps 762 mmHg 84%
    06:00 +2°C° 0 mm 1 mps 762 mmHg 85%
    07:00 +4°C° 0 mm 1 mps 762 mmHg 77%
    08:00 +5°C° 0 mm 2 mps 762 mmHg 69%
    09:00 +6°C° 0 mm 2 mps 761 mmHg 62%
    10:00 +8°C° 0 mm 2 mps 761 mmHg 56%
    11:00 +9°C° 0 mm 3 mps 761 mmHg 49%
    12:00 +10°C° 0 mm 3 mps 760 mmHg 43%
    13:00 +11°C° 0 mm 3 mps 760 mmHg 42%
    14:00 +11°C° 0 mm 3 mps 759 mmHg 42%
    15:00 +12°C° 0 mm 3 mps 759 mmHg 41%
    16:00 +10°C° 0 mm 3 mps 759 mmHg 47%
    17:00 +9°C° 0 mm 3 mps 759 mmHg 54%
    18:00 +7°C° 0 mm 3 mps 759 mmHg 60%
    19:00 +7°C° 0 mm 3 mps 759 mmHg 65%
    20:00 +5°C° 0 mm 3 mps 758 mmHg 70%
    21:00 +4°C° 0 mm 3 mps 758 mmHg 75%
    22:00 +4°C° 0 mm 3 mps 758 mmHg 77%
    23:00 +4°C° 0 mm 3 mps 758 mmHg 79%

    Day after tomorrow, 22 February, Wednesday

    Time Temperature Precipitation Wind Pressure Humidity
    00:00 +4°C° 0 mm 2 mps 758 mmHg 81%
    01:00 +3°C° 0 mm 3 mps 757 mmHg 79%
    02:00 +3°C° 0 mm 3 mps 757 mmHg 76%
    03:00 +3°C° 0 mm 3 mps 757 mmHg 74%
    04:00 +3°C° 0 mm 3 mps 757 mmHg 72%
    05:00 +1°C° 0 mm 4 mps 757 mmHg 71%
    06:00 +1°C° 0 mm 4 mps 757 mmHg 69%
    07:00 +4°C° 0 mm 4 mps 758 mmHg 63%
    08:00 +5°C° 0 mm 5 mps 758 mmHg 56%
    09:00 +6°C° 0 mm 5 mps 759 mmHg 49%
    10:00 +8°C° 0 mm 5 mps 759 mmHg 44%
    11:00 +10°C° 0 mm 5 mps 759 mmHg 40%
    12:00 +12°C° 0 mm 5 mps 759 mmHg 36%
    13:00 +13°C° 0 mm 5 mps 758 mmHg 35%
    14:00 +13°C° 0 mm 5 mps 758 mmHg 34%
    15:00 +14°C° 0 mm 4 mps 758 mmHg 34%
    16:00 +12°C° 0 mm 4 mps 758 mmHg 39%
    17:00 +10°C° 0 mm 4 mps 758 mmHg 44%
    18:00 +9°C° 0 mm 3 mps 758 mmHg 49%
    19:00 +8°C° 0 mm 3 mps 758 mmHg 50%
    20:00 +7°C° 0 mm 4 mps 758 mmHg 51%
    21:00 +6°C° 0 mm 4 mps 758 mmHg 52%
    22:00 +6°C° 0 mm 4 mps 758 mmHg 53%
    23:00 +5°C° 0 mm 4 mps 758 mmHg 53%

    23 February, Thursday

    Time Temperature Precipitation Wind Pressure Humidity
    00:00 +5°C° 0 mm 4 mps 758 mmHg 53%
    01:00 +5°C° 0 mm 4 mps 758 mmHg 54%
    02:00 +4°C° 0 mm 4 mps 757 mmHg 54%
    03:00 +4°C° 0 mm 4 mps 757 mmHg 55%
    04:00 +3°C° 0 mm 5 mps 757 mmHg 55%
    05:00 +3°C° 0 mm 6 mps 758 mmHg 56%
    06:00 +3°C° 0 mm 6 mps 758 mmHg 57%
    07:00 +4°C° 0 mm 8 mps 759 mmHg 53%
    08:00 +6°C° 0 mm 9 mps 759 mmHg 50%
    09:00 +8°C° 0 mm 10 mps 760 mmHg 46%
    10:00 +9°C° 0 mm 10 mps 760 mmHg 43%
    11:00 +11°C° 0 mm 9 mps 761 mmHg 40%
    12:00 +12°C° 0 mm 8 mps 761 mmHg 37%
    13:00 +12°C° 0 mm 7 mps 761 mmHg 37%
    14:00 +14°C° 0 mm 7 mps 761 mmHg 37%
    15:00 +14°C° 0 mm 6 mps 762 mmHg 37%
    16:00 +12°C° 0 mm 4 mps 762 mmHg 44%
    17:00 +10°C° 0 mm 3 mps 762 mmHg 51%
    18:00 +9°C° 0 mm 1 mps 762 mmHg 58%
    19:00 +8°C° 0 mm 2 mps 763 mmHg 61%
    20:00 +7°C° 0 mm 3 mps 763 mmHg 64%
    21:00 +7°C° 0 mm 3 mps 763 mmHg 67%
    22:00 +7°C° 0 mm 3 mps 763 mmHg 67%
    23:00 +6°C° 0 mm 4 mps 763 mmHg 67%

    24 February, Friday

    Time Temperature Precipitation Wind Pressure Humidity
    00:00 +5°C° 0 mm 4 mps 762 mmHg 68%
    01:00 +5°C° 0 mm 4 mps 762 mmHg 64%
    02:00 +5°C° 0 mm 4 mps 762 mmHg 60%
    03:00 +3°C° 0 mm 5 mps 762 mmHg 56%
    04:00 +3°C° 0 mm 5 mps 762 mmHg 56%
    05:00 +3°C° 0 mm 5 mps 762 mmHg 56%
    06:00 +3°C° 0 mm 6 mps 763 mmHg 55%
    07:00 +5°C° 0 mm 6 mps 763 mmHg 52%
    08:00 +6°C° 0 mm 7 mps 763 mmHg 49%
    09:00 +9°C° 0 mm 7 mps 764 mmHg 46%
    10:00 +10°C° 0 mm 6 mps 764 mmHg 42%
    11:00 +13°C° 0 mm 6 mps 764 mmHg 38%
    12:00 +15°C° 0 mm 5 mps 764 mmHg 34%
    13:00 +15°C° 0 mm 4 mps 764 mmHg 34%
    14:00 +17°C° 0 mm 3 mps 763 mmHg 33%
    15:00 +17°C° 0 mm 3 mps 763 mmHg 32%
    16:00 +14°C° 0 mm 3 mps 763 mmHg 37%
    17:00 +13°C° 0 mm 3 mps 763 mmHg 41%
    18:00 +11°C° 0 mm 3 mps 763 mmHg 46%
    19:00 +10°C° 0 mm 3 mps 764 mmHg 50%
    20:00 +9°C° 0 mm 3 mps 764 mmHg 53%
    21:00 +9°C° 0 mm 3 mps 764 mmHg 57%
    22:00 +8°C° 0 mm 3 mps 763 mmHg 60%
    23:00 +7°C° 0 mm 2 mps 763 mmHg 62%

    25 February, Saturday

    Time Temperature Precipitation Wind Pressure Humidity
    00:00 +7°C° 0 mm 2 mps 763 mmHg 65%
    01:00 +7°C° 0 mm 2 mps 763 mmHg 66%
    02:00 +6°C° 0 mm 2 mps 762 mmHg 67%
    03:00 +6°C° 0 mm 2 mps 762 mmHg 68%
    04:00 +6°C° 0 mm 2 mps 762 mmHg 66%
    05:00 +6°C° 0 mm 2 mps 762 mmHg 64%
    06:00 +5°C° 0 mm 3 mps 762 mmHg 62%
    07:00 +7°C° 0 mm 3 mps 762 mmHg 55%
    08:00 +9°C° 0 mm 3 mps 762 mmHg 49%
    09:00 +10°C° 0 mm 3 mps 762 mmHg 43%
    10:00 +12°C° 0 mm 4 mps 761 mmHg 40%
    11:00 +13°C° 0 mm 4 mps 761 mmHg 37%
    12:00 +15°C° 0 mm 5 mps 760 mmHg 33%
    13:00 +15°C° 0 mm 5 mps 759 mmHg 33%
    14:00 +17°C° 0 mm 4 mps 759 mmHg 32%
    15:00 +17°C° 0 mm 4 mps 758 mmHg 32%
    16:00 +15°C° 0 mm 4 mps 758 mmHg 37%
    17:00 +13°C° 0 mm 4 mps 758 mmHg 42%
    18:00 +12°C° 0 mm 4 mps 758 mmHg 47%
    19:00 +11°C° 0 mm 4 mps 757 mmHg 51%
    20:00 +10°C° 0 mm 4 mps 757 mmHg 55%
    21:00 +8°C° 0 mm 4 mps 756 mmHg 59%
    22:00 +8°C° 0 mm 4 mps 756 mmHg 59%
    23:00 +8°C° 0 mm 4 mps 755 mmHg 59%
    Show more